ATLAS 5 CENTAUR DEB, 44655

Orbit data source: Space-Track

ATLAS 5 CENTAUR DEB, 44655 is space debris in HEO originally from a launch on Wed, 17 Oct 2018 UTC launched from the Air Force Eastern Test Range (AFETR). Debris objects in space refer to the collection of defunct objects orbiting the Earth. Examples of debris include non-operational satellites, rocket bodies, and fragments generated from explosions, collisions, or faulty payload assembly.

Loading next visibility...
Identifier
44655, 2018-079R
Orbit
HEO
Country
Flag of USUS
Related business
Flag of USUnited Launch Alliance/Lockheed Martin (US)
Manufacturer
ULA Decatur
Mission
Spacecraft
Bus & Motor
Unknown
Mass
Unknown
Launch date (UTC)
2018-10-17 (7 years ago)
Launch vehicle
Unknown
Launch site
Air Force Eastern Test Range (AFETR)
Object type
Payload
Rocket body
Debris
Shape & HBR
Unknown shape, 1.1 m
Radar Cross Section
RCS unknown

Expand to show TLE details & history
Last TLE update: 22 hours ago

TLE from 22 hours ago
0 ATLAS 5 CENTAUR DEB
1 44655U 18079R   26023.18115081 -.00000100  00000-0  00000-0 0  9999
2 44655  13.7103  32.7978 4736257 314.4301  15.2469  1.83831252 48829
Epoch: 2026-01-23T04:20Z
TLE epoch observation values (Epoch: 2026-01-23T04:20:51.429Z)
Latitude
0.00004°
Longitude
-154.89828°
Altitude
10,027.297 km
Speed
5.868 km/s
True Right ascension
02h 11m 21s
True Declination
0° 00' 00"
Sunlit
Object was in daylight at epoch
Visualization orbit readout
Latitude
Unknown
Longitude
Unknown
Altitude
Unknown
Speed
Unknown
Apparent Right ascension
Unknown
Apparent Declination
Unknown
Sunlit
N/A
Visualization observer readout
Local Sidereal Time
03:46:31
Azimuth
Unknown
Elevation
Unknown
Doppler factor
Unknown
Orbital elements
Apogee altitude
35,105.366 km
Perigee altitude
8,439.635 km
Semi-major axis
28,150.638 km
Eccentricity
0.47363
Inclination
13.7103°
RAAN
32.7978°
Arg. of periapsis
314.4301°
True anomaly
45.255°
Mean anomaly
15.2469°
Eccentric anomaly
27.97737°
Mean motion
0.45953 °/min
Orbital period
783.41 mins
BSTAR
0
Loading maneuver chart data...
Computing Atmospheric mass density...

Documentation

Showing up to 5 results
|